Regional Weather Roundup
Issued by NWS

Home | Current Version | Previous Version | Text Only | Print | Product List | Glossary Off
Versions: 1 2 3 4 5 6 7 8 9 10 11 12 13 14 15 16 17 18 19 20 21 22 23 24 25 26 27 28 29 30 31 32 33 34 35 36 37 38 39 40 41 42 43 44 45 46 47 48 49 50

000
ASUS43 KIND 042159
RWRIN

WEATHER ROUNDUP FOR INDIANA
NATIONAL WEATHER SERVICE INDIANAPOLIS IN
600 PM EDT FRI SEP 04 2015

NOTE: "FAIR" INDICATES FEW OR NO CLOUDS BELOW 12,000 FEET WITH NO
SIGNIFICANT WEATHER AND/OR OBSTRUCTIONS TO VISIBILITY.

* - STATION DOES NOT REPORT WEATHER SUCH AS PRECIPITATION OR FOG.

+ - STATION NOT QUALITY CONTROLLED BY THE NATIONAL WEATHER SERVICE.
    USE DATA WITH CAUTION...ESPECIALLY DEWPOINT AND RELATIVE
    HUMIDITY OBSERVATIONS.

INZ001>003-010>013-019-020-042300-
NORTHWEST INDIANA

CITY           SKY/WX    TMP DP  RH WIND       PRES   REMARKS
GARY /AIRPORT/ PTSUNNY   77  68  73 NE10      30.02S
RENSSELAER +   MOSUNNY   77  72  83 S3        30.02R

$$

LMZ046-743>745-042300-
SOUTHERN LAKE MICHIGAN

STATION/POSITION TIME  TEMP    WIND        PRES    WAVE
                       AIR SEA DIR/SP/G            HT
                 (UTC) (F)     (DEG/KT/KT) (MB)    (FT)
BURNS HARBOR     2100   73      50/ 11/ 13 1016.9S
MICHIGAN CITY    2100   71      20/  9/ 10   N/A
5NW MICH CITY    2100   71 74   50/  6/ 10   N/A     2

$$

INZ004-005-014>016-021>024-042300-
NORTH CENTRAL INDIANA

CITY           SKY/WX    TMP DP  RH WIND       PRES   REMARKS
ELKHART        SUNNY     79  72  78 NW7       30.03R
GOSHEN         CLOUDY    77  70  79 S9        30.04R
PERU/GRISSOM   LGT RAIN  72  68  88 NE9       30.02F
SOUTH BEND     CLOUDY    78  69  73 NW8       30.04S

$$

INZ006>009-017-018-025>027-042300-
NORTHEAST INDIANA

CITY           SKY/WX    TMP DP  RH WIND       PRES   REMARKS
ANGOLA *+      SUNNY     77  72  83 CALM      30.05R
FORT WAYNE     TSTM      65  62  90 W3        30.06F

$$

INZ028-029-035-036-043>045-051>053-042300-
WEST CENTRAL INDIANA

CITY           SKY/WX    TMP DP  RH WIND       PRES   REMARKS
CRAWFORDSVL +  PTSUNNY   88  60  39 SW3       30.01R
GREENCASTLE +  MOSUNNY   90  61  37 CALM      30.01F
LAFAYETTE      CLOUDY    81  65  58 E5        29.99F
TERRE HAUTE    PTSUNNY   93  66  40 SW8G21    29.99F HX  96

$$

INZ030>032-037>040-046>048-054>057-064-065-042300-
CENTRAL INDIANA

CITY           SKY/WX    TMP DP  RH WIND       PRES   REMARKS
FRANKFORT +    CLOUDY    73  68  85 E6        30.05F THUNDER
GREENWOOD *+   MOSUNNY   90  63  40 SW6       30.02R
INDIANAPOLIS   NOT AVBL
-EAGLE CREEK   MOSUNNY   89  66  46 VRB5      30.00R
KOKOMO *+      CLOUDY    73  64  73 N5        30.05F
MT COMFORT *+  MOSUNNY   77  59  53 SE21G33   30.02F
SHELBYVILLE    PTSUNNY   83  64  52 N9        30.02R
ZIONSVILLE +   CLOUDY    80  64  58 N12G21    30.05R THUNDER

$$

INZ033-034-041-042-049-050-058-059-042300-
EAST CENTRAL INDIANA

CITY           SKY/WX    TMP DP  RH WIND       PRES   REMARKS
MUNCIE         TSTM      71  64  78 NE20G25   30.05S

$$

INZ060-061-067>069-081>083-085>088-042300-
SOUTHWEST INDIANA

CITY           SKY/WX    TMP DP  RH WIND       PRES   REMARKS
EVANSVILLE     SUNNY     94  61  33 W6        30.00S
HUNTINGBURG *+ MOSUNNY   93  64  38 SW7       30.00S HX  95

$$

INZ062-063-066-070>080-084-089>092-042300-
SOUTH CENTRAL AND SOUTHEAST INDIANA

CITY           SKY/WX    TMP DP  RH WIND       PRES   REMARKS
BLOOMINGTON    SUNNY     91  67  44 S6        30.02S
MADISON *+     MOSUNNY   91  61  35 SW3       30.03S
SEYMOUR +      SUNNY     95  64  36 W7        30.00R HX  97

$$



USA.gov is the U.S. government's official web portal to all federal, state and local government web resources and services.